Station 46078 (LLNR 1187) - ALBATROSS BANK - 104NM South of Kodiak Is., AK Image indicating link to RSS feed of recent meteorological observations for station 46078


Conditions at 46078 as of
(12:30 pm AKDT)
2030 GMT on 04/17/2024:
     

Click on the graph icon in the table below to see a time series plot of the last five days of that observation.

5-day plot - Wind Direction Wind Direction (WDIR): SE ( 130 deg true )
5-day plot - Wind Speed Wind Speed (WSPD): 21.4 kts
5-day plot - Wind Gust Wind Gust (GST): 29.1 kts
5-day plot - Atmospheric Pressure Atmospheric Pressure (PRES):29.47 in
5-day plot - Air Temperature Air Temperature (ATMP): 41.7 °F
5-day plot - Water Temperature Water Temperature (WTMP): 39.7 °F
5-day plot - Dew Point Dew Point (DEWP): 41.4 °F
5-day plot - Wind Chill Wind Chill (CHILL): 31.8 °F
5-day plot - Wind Speed at 10 Meters Wind Speed at 10 meters (WSPD10M): 23.3 kts
5-day plot - Wind Speed at 20 Meters Wind Speed at 20 meters (WSPD20M): 25.3 kts
5-day plot -  Wind Speed, Wind Gust and Atmospheric Pressure Combined plot of Wind Speed, Gust, and Air Pressure
Supplemental Measurements
Highest 1-minute Wind Speed
Time (AKDT)5-day plot - 1-Minute Wind Speed WSPD 5-day plot - 1-Minute Wind Direction WDIR
12:23 pm 21.4 kts-
Previous observations
TIME
(AKDT)
5-day plot - Wind Direction
WDIR
 
5-day plot - Wind Speed
WSPD
kts
5-day plot - Wind Gust
GST
kts
5-day plot - Wave Height
WVHT
ft
5-day plot - Dominant Wave Period
DPD
sec
5-day plot - Average Wave Period
APD
sec
5-day plot - Mean Wave Direction
MWD
 
5-day plot - Atmospheric Pressure
PRES
in
5-day plot - Pressure Tendency
PTDY
in
5-day plot - Air Temperature
ATMP
°F
5-day plot - Water Temperature
WTMP
°F
5-day plot - Dew Point
DEWP
°F
5-day plot - Salinity
SAL
psu
5-day plot - Visibility
VIS
nmi
5-day plot - Tide (above MLLW)
TIDE
ft
2024-04-17 12:20 pmESE 21.4 31.1 19.7 128.8 SE29.46- 41.7 39.7 41.4---
2024-04-17 12:10 pm SE 21.4 29.1 19.7-8.8 SE29.46- 41.7 39.7 41.4---
2024-04-17 12:00 pm SE 21.4 29.1----29.45+0.04 41.9 39.7 41.5---
2024-04-17 11:50 amESE 23.3 31.1 19.0 128.7 SE29.45- 41.9 39.7 41.5---
2024-04-17 11:40 amESE 23.3 33.0 19.0-8.7 SE29.44- 41.9 39.7 41.5---
2024-04-17 11:30 amESE 23.3 31.1----29.44- 41.9 39.7 41.5---
2024-04-17 11:20 amESE 23.3 35.0 17.7 128.3 SE29.43- 41.9 39.7 41.5---
2024-04-17 11:10 amESE 23.3 31.1 17.7-8.3 SE29.43- 41.9 39.7 41.5---
2024-04-17 11:00 amESE 25.3 33.0----29.42+0.00 42.1 39.7 41.7---
2024-04-17 10:50 amESE 23.3 33.0 19.4 138.8ESE29.42- 42.1 39.7 41.7---
2024-04-17 10:40 amESE 25.3 33.0----29.41- 42.1 39.7 41.7---
2024-04-17 10:30 amESE 23.3 31.1----29.41- 41.9 39.7 41.5---
2024-04-17 10:20 amESE 23.3 33.0 18.7 138.4ESE29.41- 42.1 39.7 41.7---
2024-04-17 10:10 amESE 23.3 33.0 18.7-8.4ESE29.41- 42.1 39.7 41.7---
2024-04-17 10:00 amESE 23.3 33.0----29.41-0.02 42.1 39.7 41.5---
2024-04-17 09:50 amESE 23.3 33.0 20.7 138.7 SE29.41- 41.9 39.7 41.2---
2024-04-17 09:40 amESE 23.3 33.0 20.7-8.7 SE29.41- 41.9 39.7 41.2---
2024-04-17 09:30 amESE 23.3 33.0----29.41- 42.1 39.7 41.4---
2024-04-17 09:20 amESE 25.3 31.1 20.0 128.7ESE29.41- 42.1 39.7 41.5---
2024-04-17 09:10 amESE 25.3 35.0 20.0-8.7ESE29.41- 42.1 39.7 41.4---
2024-04-17 09:00 amESE 23.3 33.0----29.42-0.04 41.9 39.7 41.2---
2024-04-17 08:50 amESE 25.3 35.0 21.0 118.8 SE29.41- 41.9 39.7 41.2---
2024-04-17 08:40 amESE 25.3 35.0----29.41- 41.9 39.7 41.4---
2024-04-17 08:30 amESE 25.3 33.0----29.42- 41.9 39.7 41.2---
2024-04-17 08:20 amESE 25.3 35.0 21.0 128.8 SE29.42- 41.9 39.7 41.2---
2024-04-17 08:10 amESE 25.3 35.0 21.0-8.8 SE29.42- 41.9 39.7 41.2---
2024-04-17 08:00 amESE 25.3 35.0----29.43-0.06 41.9 39.7 41.2---
2024-04-17 07:50 amESE 25.3 33.0 21.0 138.7 SE29.43- 41.9 39.7 41.2---
2024-04-17 07:40 amESE 25.3 35.0----29.43- 41.9 39.7 41.2---
2024-04-17 07:30 amESE 27.2 33.0----29.43- 41.9- 41.2---
2024-04-17 07:20 amESE 27.2 36.9 22.3 128.9 SE29.43- 41.7 39.7 41.0---
2024-04-17 07:10 amESE 25.3 33.0 22.3-8.9 SE29.44- 41.7 39.7 41.0---
2024-04-17 07:00 amESE 25.3 35.0----29.44-0.09 41.7 39.7 41.0---
2024-04-17 06:50 amESE 27.2 33.0 23.3 129.3 SE29.44- 41.7 39.7 41.0---
2024-04-17 06:40 amESE 27.2 35.0----29.45- 41.5 39.7 40.8---
2024-04-17 06:30 am E 27.2 35.0----29.45- 41.5 39.7 40.8---
2024-04-17 06:20 amESE 25.3 36.9 22.0 128.9 SE29.45- 41.5 39.7 40.8---
2024-04-17 06:10 amESE 27.2 36.9 22.0-8.9 SE29.46- 41.5 39.7 40.8---
2024-04-17 06:00 am E 27.2 35.0----29.46-0.12 41.4- 40.6---
2024-04-17 05:50 am E 29.1 35.0 22.3 129.0 SE29.47- 41.4 39.7 40.6---
2024-04-17 05:40 am E 27.2 36.9 22.3-9.0 SE29.47- 41.4 39.7 40.6---
2024-04-17 05:30 am E 27.2 36.9----29.47- 41.4 39.7 40.6---
2024-04-17 05:20 am E 27.2 36.9 20.0 118.5 SE29.48- 41.4 39.7 40.6---
2024-04-17 05:10 amESE 27.2 36.9 20.0-8.5 SE29.49- 41.4 39.7 40.6---
2024-04-17 05:00 am E 27.2 38.9----29.49-0.12 41.4 39.7 40.6---
2024-04-17 04:50 am E 29.1 36.9 21.0 128.6 SE29.50- 41.2 39.7 40.5---
2024-04-17 04:40 am E 29.1 36.9----29.51- 41.4 39.7 40.3---
2024-04-17 04:30 am E 27.2 36.9----29.52- 41.2 39.7 40.1---
2024-04-17 04:20 am E 29.1 36.9 22.0 118.6 SE29.52- 41.2 39.7 40.1---
2024-04-17 04:10 am E 29.1 40.8 22.0-8.6 SE29.53- 41.4 39.7 40.3---
2024-04-17 04:00 am E 29.1 40.8----29.53-0.12 41.2 39.6 40.1---
2024-04-17 03:50 am E 29.1 36.9 20.0 128.4 SE29.54- 41.2 39.6 40.1---
2024-04-17 03:40 am E 29.1 38.9----29.54- 41.2 39.7 40.1---
2024-04-17 03:30 am E 31.1 38.9----29.55- 41.2 39.7 40.1---
2024-04-17 03:20 am E 31.1 38.9 22.3 119.0 SE29.56- 41.2 39.7 40.1---
2024-04-17 03:10 am E 29.1 38.9 22.3-9.0 SE29.57- 41.2 39.7 40.1---
2024-04-17 03:00 am E 29.1 40.8----29.57-0.12 41.0 39.7 39.9---
2024-04-17 02:50 am E 31.1 40.8 18.4 127.8 SE29.58- 41.0 39.7 39.9---
2024-04-17 02:40 am E 29.1 42.7----29.59- 41.0 39.7 39.9---
2024-04-17 02:30 am E 29.1 40.8----29.59- 40.8 39.7 39.7---
2024-04-17 02:20 am E 29.1 40.8 20.0 118.3 SE29.60- 40.8 39.7 39.7---
2024-04-17 02:10 am E 29.1 38.9 20.0-8.3 SE29.61- 40.8 39.7 39.7---
2024-04-17 02:00 am E 31.1 40.8----29.62-0.14 40.8 39.7 39.7---
2024-04-17 01:50 am E 31.1 40.8 19.0 118.0 SE29.63- 40.8 39.7 39.7---
2024-04-17 01:40 am E 29.1 38.9 19.0-8.0 SE29.63- 40.6 39.7 39.6---
2024-04-17 01:30 am E 29.1 40.8----29.64- 40.6 39.7 39.6---
2024-04-17 01:20 am E 31.1 42.7 21.0 118.7 SE29.64- 40.6 39.7 39.6---
2024-04-17 01:10 am E 31.1 40.8 21.0-8.7 SE29.65- 40.5 39.7 39.4---
2024-04-17 01:00 am E 31.1 42.7----29.65-0.15 40.6 39.7 39.6---
2024-04-17 12:50 am E 33.0 44.7 20.0 118.3 SE29.66- 40.6 39.7 39.2---
2024-04-17 12:40 am E 33.0 44.7----29.66- 40.6 39.7 39.2---
2024-04-17 12:30 am E 31.1 38.9----29.67- 40.5 39.7 39.0---
2024-04-17 12:20 am E 33.0 44.7 19.0 118.2 SE29.68- 40.5 39.7 39.0---
2024-04-17 12:10 am E 33.0 44.7----29.69- 40.5 39.7 38.8---
2024-04-17 12:00 am E 33.0 44.7----29.69-0.15 40.3 39.7 38.7---
2024-04-16 11:50 pm E 33.0 44.7 18.0 117.9 SE29.70- 40.3 39.7 38.7---
2024-04-16 11:40 pm E 31.1 48.6----29.72- 40.3 39.7 38.7---
2024-04-16 11:30 pm E 33.0 46.6----29.72- 40.3 39.7 38.7---
2024-04-16 11:20 pm E 33.0 44.7 18.0 118.1 SE29.73- 40.1 39.7 38.5---
2024-04-16 11:10 pm E 33.0 44.7 18.0-8.1 SE29.74- 40.1 39.7 38.7---
2024-04-16 11:00 pm E 33.0 42.7----29.75-0.13 39.9 39.7 38.7---
2024-04-16 10:50 pm E 33.0 44.7 16.4 107.7 SE29.75- 40.1 39.7 38.5---
2024-04-16 10:40 pm E 33.0 44.7 16.4-7.7 SE29.77- 39.9 39.7 38.3---
2024-04-16 10:30 pm E 33.0 44.7----29.78- 39.9 39.7 38.3---
2024-04-16 10:20 pm E 33.0 44.7 17.1 107.7 SE29.78- 39.9 39.7 38.5---
2024-04-16 10:10 pm E 31.1 38.9 17.1-7.7 SE29.79- 39.9 39.7 38.7---
2024-04-16 10:00 pm E 31.1 40.8----29.80-0.13 39.9 39.7 38.7---
2024-04-16 09:50 pm E 31.1 40.8 17.4 117.7SSE29.80- 39.7 39.7 38.5---
2024-04-16 09:40 pm E 31.1 40.8 17.4-7.7SSE29.81- 39.7 39.7 38.7---
2024-04-16 09:30 pm E 31.1 44.7----29.82- 39.6 39.7 38.5---
2024-04-16 09:20 pm E 31.1 40.8 17.1 107.6 SE29.83- 39.6 39.7 38.5---
2024-04-16 09:10 pm E 31.1 38.9 17.1-7.6 SE29.84- 39.6 39.7 38.5---
2024-04-16 09:00 pm E 29.1 38.9----29.84-0.14 39.6 39.7 38.5---
2024-04-16 08:50 pm E 29.1 40.8 16.4 117.6SSE29.85- 39.6 39.7 38.3---
2024-04-16 08:40 pm E 31.1 40.8----29.85- 39.6 39.7 38.3---
2024-04-16 08:30 pm E 31.1 40.8----29.86- 39.6 39.7 38.5---
2024-04-16 08:20 pm E 31.1 38.9 16.1 97.7 SE29.87- 39.6 39.7 38.3---
2024-04-16 08:10 pm E 29.1 38.9----29.87- 39.6 39.7 38.3---
2024-04-16 08:00 pm E 31.1 42.7----29.88-0.14 39.6 39.7 37.9---
2024-04-16 07:50 pm E 31.1 40.8 18.0 97.8 SE29.89- 39.6 39.7 37.6---
2024-04-16 07:40 pm E 31.1 40.8----29.89- 39.7 39.7 37.8---
2024-04-16 07:30 pm E 29.1 40.8----29.91- 39.7 39.7 37.8---
2024-04-16 07:20 pm E 29.1 36.9 14.8 107.2SSE29.92- 39.7 39.7 37.8---
2024-04-16 07:10 pm E 27.2 36.9 14.8-7.2SSE29.92- 39.7 39.7 37.8---
2024-04-16 07:00 pm E 29.1 40.8----29.93-0.14 39.6 39.7 37.2---
2024-04-16 06:50 pm E 29.1 38.9 14.8 107.4SSE29.94- 39.7 39.7 37.4---
2024-04-16 06:40 pm E 29.1 38.9----29.95- 39.7 39.7 37.4---
2024-04-16 06:30 pm E 29.1 40.8----29.96- 39.7 39.7 37.4---
2024-04-16 06:20 pm E 29.1 36.9 14.1 97.0SSE29.96- 39.7 39.7 37.4---
2024-04-16 06:10 pm E 27.2 40.8 14.1-7.0SSE29.97- 39.7 39.7 37.4---
2024-04-16 06:00 pm E 29.1 36.9----29.98-0.12 39.7 39.7 37.2---
2024-04-16 05:50 pm E 31.1 38.9 14.4 87.3 SE29.98- 39.7 39.7 37.2---
2024-04-16 05:40 pm E 27.2 35.0----29.99- 39.9 39.7 37.4---
2024-04-16 05:30 pm E 27.2 36.9----30.00- 39.9 39.7 37.0---
2024-04-16 05:20 pm E 27.2 36.9 12.8 86.9 SE30.01- 40.1 39.7 37.0---
2024-04-16 05:10 pm E 27.2 35.0 12.8-6.9 SE30.02- 40.1 39.7 36.9---
2024-04-16 05:00 pm E 29.1 38.9----30.02-0.12 40.1 39.7 36.9---
2024-04-16 04:50 pm E 29.1 36.9 12.5 87.0 SE30.03- 40.3 39.7 37.0---
2024-04-16 04:40 pm E 29.1 36.9 12.5-7.0 SE30.03- 40.3 39.7 37.0---
2024-04-16 04:30 pm E 27.2 38.9----30.04- 40.3 39.7 37.0---
2024-04-16 04:20 pm E 27.2 36.9 12.5 96.8SSE30.05- 40.1 39.7 36.9---
2024-04-16 04:10 pm E 27.2 36.9 12.5-6.8SSE30.06- 40.1 39.7 36.9---
2024-04-16 04:00 pm E 27.2 36.9----30.07-0.10 40.1 39.7 36.9---
2024-04-16 03:50 pm E 27.2 36.9 12.5 86.7 SE30.07- 40.1 39.7 36.9---
2024-04-16 03:40 pm E 25.3 33.0----30.08- 40.3 39.7 36.9---
2024-04-16 03:10 pm E 27.2 33.0 11.5-6.4ESE30.10- 40.3 39.7 36.7---
2024-04-16 03:00 pm E 27.2 35.0----30.11-0.09 40.3 39.7 36.7---
2024-04-16 02:50 pmESE 27.2 36.9 11.5 86.5 SE30.11- 40.3 39.7 36.3---
2024-04-16 02:40 pm E 25.3 35.0----30.12- 40.3 39.7 36.7---
2024-04-16 02:30 pm E 25.3 33.0----30.13- 40.3 39.7 36.5---
2024-04-16 02:20 pm E 25.3 35.0 10.2 86.2 SE30.14- 40.3 39.7 36.3---
2024-04-16 02:10 pmESE 25.3 33.0 10.2-6.2 SE30.14- 40.3 39.7 36.3---
2024-04-16 02:00 pmESE 25.3 35.0----30.15-0.07 40.3 39.7 36.1---
2024-04-16 01:50 pmESE 25.3 33.0 9.5 76.1ESE30.15- 40.5 39.7 36.1---
2024-04-16 01:40 pmESE 25.3 33.0----30.16- 40.5 39.7 36.1---
2024-04-16 01:30 pmESE 23.3 33.0----30.16- 40.5 39.7 36.3---
2024-04-16 01:20 pmESE 25.3 33.0 10.5 86.1 SE30.16- 40.3 39.7 36.1---
2024-04-16 01:10 pmESE 25.3 33.0 10.5-6.1 SE30.16- 40.3 39.7 36.1---
2024-04-16 01:00 pmESE 25.3 33.0----30.17-0.07 40.5 39.7 36.3---
2024-04-16 12:50 pmESE 25.3 35.0 9.5 76.0 SE30.17- 40.5 39.7 36.1---
2024-04-16 12:40 pmESE 25.3 35.0----30.18- 40.3 39.7 35.8---
2024-04-16 12:30 pmESE 23.3 33.0----30.18- 40.3 39.7 35.8---
2024-04-16 12:20 pmESE 23.3 31.1 8.5 75.8 SE30.18- 40.3 39.7 36.0---
2024-04-16 12:10 pm E 25.3 33.0 8.5-5.8 SE30.19- 40.3 39.7 35.8---
2024-04-16 12:00 pm E 23.3 29.1----30.19-0.06 40.3 39.7 35.8---
2024-04-16 11:50 amESE 25.3 31.1 8.2 75.7SSE30.19- 40.1 39.7 35.6---

Detailed Wave Summary
for 46078 as of (12:10 pm AKDT)
2010 GMT on 04/17/2024:

These wave data are displayed in rounded times.

     

Click on the graph icon in the table below to see a time series plot of the last five days of that observation.

5-day plot - Significant Wave Height Significant Wave Height (WVHT): 19.7 ft
5-day plot - Wave Steepness Wave Steepness (STEEPNESS): AVERAGE
5-day plot - Average Wave Period Average Wave Period (APD): 8.8 sec
Previous observations
TIME
(AKDT)
5-day plot - Wave Height
WVHT
ft
5-day plot - Swell Height
SwH
ft
5-day plot - Swell Period
SwP
sec
5-day plot - Swell Direction
SwD
 
5-day plot - Wind Wave Height
WWH
ft
5-day plot - Wind Wave Period
WWP
sec
5-day plot - Wind Wave Direction
WWD
 
5-day plot - Wave Steepness
STEEPNESS
 
5-day plot - Average Wave Period
APD
sec
2024-04-17 11:40 am 19.0------ AVERAGE 8.7
2024-04-17 11:10 am 17.7------ AVERAGE 8.3
2024-04-17 10:40 am 19.4------ AVERAGE 8.8
2024-04-17 10:10 am 18.7------ AVERAGE 8.4
2024-04-17 09:40 am 20.7------ AVERAGE 8.7
2024-04-17 09:10 am 20.0------ AVERAGE 8.7
2024-04-17 08:40 am 21.0------ STEEP 8.8
2024-04-17 08:10 am 21.0------ AVERAGE 8.8
2024-04-17 07:40 am 21.0------ AVERAGE 8.7
2024-04-17 07:10 am 22.3------ AVERAGE 8.9
2024-04-17 06:40 am 23.3------ AVERAGE 9.3
2024-04-17 06:10 am 22.0------ AVERAGE 8.9
2024-04-17 05:40 am 22.3------ AVERAGE 9.0
2024-04-17 05:10 am 20.0------ STEEP 8.5
2024-04-17 04:40 am 21.0------ AVERAGE 8.6
2024-04-17 04:10 am 22.0------ STEEP 8.6
2024-04-17 03:40 am 20.0------ AVERAGE 8.4
2024-04-17 03:10 am 22.3------ STEEP 9.0
2024-04-17 02:40 am 18.4------ AVERAGE 7.8
2024-04-17 02:10 am 20.0------ STEEP 8.3
2024-04-17 01:40 am 19.0------ AVERAGE 8.0
2024-04-17 01:10 am 21.0------ STEEP 8.7
2024-04-17 12:40 am 20.0------ AVERAGE 8.3
2024-04-17 12:10 am 19.0------ AVERAGE 8.2
2024-04-16 11:40 pm 18.0------ AVERAGE 7.9
2024-04-16 11:10 pm 18.0------ AVERAGE 8.1
2024-04-16 10:40 pm 16.4------ STEEP 7.7
2024-04-16 10:10 pm 17.1------ STEEP 7.7
2024-04-16 09:40 pm 17.4------ STEEP 7.7
2024-04-16 09:10 pm 17.1------ STEEP 7.6
2024-04-16 08:40 pm 16.4------ AVERAGE 7.6
2024-04-16 08:10 pm 16.1------ STEEP 7.7
2024-04-16 07:40 pm 18.0------ STEEP 7.8
2024-04-16 07:10 pm 14.8------ STEEP 7.2
2024-04-16 06:40 pm 14.8------ STEEP 7.4
2024-04-16 06:10 pm 14.1------ STEEP 7.0
2024-04-16 05:40 pm 14.4------VERY_STEEP 7.3
2024-04-16 05:10 pm 12.8------VERY_STEEP 6.9
2024-04-16 04:40 pm 12.5------ STEEP 7.0
2024-04-16 04:10 pm 12.5------ STEEP 6.8
2024-04-16 03:40 pm 12.5------ STEEP 6.7
2024-04-16 03:10 pm 11.5------VERY_STEEP 6.4
2024-04-16 02:40 pm 11.5------ STEEP 6.5
2024-04-16 02:10 pm 10.2------ STEEP 6.2
2024-04-16 01:40 pm 9.5------VERY_STEEP 6.1
2024-04-16 01:10 pm 10.5------ STEEP 6.1
2024-04-16 12:40 pm 9.5------VERY_STEEP 6.0
2024-04-16 12:10 pm 8.5------VERY_STEEP 5.8

Plot of wave energy versus frequency (and period)